TKJ8ZE LTBH-LTAC

Flight info

Callsign TKJ8ZE
Flight time N/A
Altitude 33000
Route BIG DCT YAA UG8 PETAR
Aircraft A320/M-SDE3FGHIRWY/LB1

Departure

Time 2026-04-21 15:46
Airport Çanakkale Airport (LTBH)

Arrival

Time N/A
Airport Esenboğa International Airport (LTAC)
Time Latitude Longitude Altitude Speed Heading
2026-04-21 15:28 40.13846 26.42389 27 ft 0 kts 310°
2026-04-21 15:37 40.13836 26.42406 27 ft 4 kts 298°
2026-04-21 15:37 40.13829 26.42437 28 ft 4 kts 258°
2026-04-21 15:37 40.13838 26.42461 29 ft 1 kts 221°
2026-04-21 15:41 40.13835 26.42458 28 ft 3 kts 221°
2026-04-21 15:42 40.13787 26.42460 27 ft 12 kts 146°
2026-04-21 15:42 40.13710 26.42565 24 ft 17 kts 141°
2026-04-21 15:42 40.13638 26.42554 26 ft 17 kts 221°
2026-04-21 15:42 40.13543 26.42446 26 ft 20 kts 221°
2026-04-21 15:43 40.13431 26.42317 27 ft 22 kts 221°
2026-04-21 15:43 40.13315 26.42185 30 ft 22 kts 221°
2026-04-21 15:43 40.13193 26.42046 30 ft 24 kts 221°
2026-04-21 15:43 40.13063 26.41897 30 ft 27 kts 221°
2026-04-21 15:44 40.12921 26.41737 29 ft 24 kts 221°
2026-04-21 15:44 40.12794 26.41670 23 ft 16 kts 191°
2026-04-21 15:44 40.12724 26.41588 28 ft 13 kts 256°
2026-04-21 15:44 40.12773 26.41568 26 ft 12 kts 51°
2026-04-21 15:45 40.12795 26.41597 30 ft 0 kts 41°
2026-04-21 15:45 40.12862 26.41675 27 ft 50 kts 41°
2026-04-21 15:45 40.13343 26.42219 32 ft 131 kts 41°
2026-04-21 15:46 40.14158 26.43160 237 ft 171 kts 42°
2026-04-21 15:46 40.15094 26.44242 810 ft 184 kts 41°
2026-04-21 15:46 40.16055 26.45334 1337 ft 186 kts 40°
2026-04-21 15:46 40.17087 26.46501 1591 ft 205 kts 41°
2026-04-21 15:47 40.18189 26.47748 2071 ft 211 kts 40°
2026-04-21 15:47 40.19306 26.49016 2722 ft 213 kts 40°
2026-04-21 15:47 40.20435 26.50301 3352 ft 219 kts 40°
2026-04-21 15:47 40.21500 26.51845 3698 ft 239 kts 60°
2026-04-21 15:48 40.22046 26.53979 4094 ft 261 kts 84°
2026-04-21 15:48 40.22237 26.56439 4676 ft 280 kts 85°
2026-04-21 15:48 40.22440 26.59003 5527 ft 286 kts 85°
2026-04-21 15:48 40.22651 26.61621 6398 ft 292 kts 85°
2026-04-21 15:49 40.22870 26.64286 7144 ft 297 kts 84°
2026-04-21 15:49 40.23087 26.66984 7962 ft 300 kts 84°
2026-04-21 15:49 40.23306 26.69730 8746 ft 305 kts 84°
2026-04-21 15:49 40.23526 26.72512 9530 ft 310 kts 83°
2026-04-21 15:50 40.23748 26.75310 10198 ft 319 kts 83°
2026-04-21 15:50 40.23992 26.78340 10422 ft 342 kts 83°
2026-04-21 15:50 40.24245 26.81502 10575 ft 365 kts 83°
2026-04-21 15:50 40.24509 26.84869 11005 ft 375 kts 84°
2026-04-21 15:51 40.24774 26.88286 11611 ft 380 kts 84°
2026-04-21 15:51 40.25045 26.91754 12222 ft 385 kts 83°
2026-04-21 15:51 40.25319 26.95269 12866 ft 389 kts 83°
2026-04-21 15:51 40.25594 26.98811 13483 ft 394 kts 83°
2026-04-21 15:52 40.25872 27.02399 14079 ft 398 kts 83°
2026-04-21 15:52 40.26148 27.06015 14658 ft 400 kts 83°
2026-04-21 15:52 40.26425 27.09660 15219 ft 404 kts 83°
2026-04-21 15:52 40.26704 27.13333 15753 ft 407 kts 83°
2026-04-21 15:53 40.26987 27.17042 16299 ft 410 kts 83°
2026-04-21 15:53 40.27269 27.20744 16861 ft 413 kts 83°
2026-04-21 15:53 40.27553 27.24497 17421 ft 416 kts 83°
2026-04-21 15:53 40.27835 27.28279 17992 ft 419 kts 83°
2026-04-21 15:54 40.28116 27.32091 18525 ft 422 kts 83°
2026-04-21 15:54 40.28397 27.35932 19013 ft 425 kts 83°
2026-04-21 15:54 40.28716 27.39794 19494 ft 428 kts 81°
2026-04-21 15:54 40.29116 27.43672 19993 ft 431 kts 80°
2026-04-21 15:55 40.29568 27.47570 20466 ft 435 kts 79°
2026-04-21 15:55 40.30041 27.51497 20930 ft 437 kts 79°
2026-04-21 15:55 40.30514 27.55444 21372 ft 440 kts 79°
2026-04-21 15:55 40.30979 27.59426 21798 ft 444 kts 79°
2026-04-21 15:56 40.31432 27.63447 22223 ft 447 kts 80°
2026-04-21 15:56 40.31876 27.67489 22641 ft 450 kts 80°
2026-04-21 15:56 40.32317 27.71570 23059 ft 453 kts 80°
2026-04-21 15:56 40.32758 27.75674 23470 ft 456 kts 80°
2026-04-21 15:57 40.33202 27.79809 23822 ft 459 kts 80°
2026-04-21 15:57 40.33645 27.83962 24200 ft 462 kts 80°
2026-04-21 15:57 40.34091 27.88148 24537 ft 465 kts 80°
2026-04-21 15:57 40.34539 27.92357 24868 ft 467 kts 80°
2026-04-21 15:58 40.34988 27.96589 25201 ft 470 kts 80°
2026-04-21 15:58 40.35436 28.00834 25536 ft 472 kts 80°
2026-04-21 15:58 40.35889 28.05114 25883 ft 475 kts 80°
2026-04-21 15:58 40.36340 28.09357 26210 ft 477 kts 80°
2026-04-21 15:59 40.36799 28.13682 26559 ft 480 kts 80°
2026-04-21 15:59 40.37260 28.18038 26907 ft 483 kts 80°
2026-04-21 15:59 40.37718 28.22400 27253 ft 485 kts 80°
2026-04-21 15:59 40.38176 28.26806 27600 ft 488 kts 80°
2026-04-21 16:00 40.38628 28.31217 27926 ft 490 kts 80°
2026-04-21 16:00 40.39083 28.35657 28345 ft 490 kts 80°
2026-04-21 16:00 40.39535 28.40088 28809 ft 490 kts 80°
2026-04-21 16:00 40.39985 28.44522 29272 ft 489 kts 80°
2026-04-21 16:01 40.40435 28.48944 29739 ft 488 kts 80°
2026-04-21 16:01 40.40883 28.53352 30169 ft 488 kts 80°
2026-04-21 16:01 40.41330 28.57766 30556 ft 487 kts 80°
2026-04-21 16:01 40.41776 28.62169 30953 ft 487 kts 80°
2026-04-21 16:02 40.42222 28.66580 31354 ft 486 kts 81°
2026-04-21 16:02 40.42663 28.70986 31742 ft 486 kts 81°
2026-04-21 16:02 40.43098 28.75381 32134 ft 486 kts 81°
2026-04-21 16:02 40.43531 28.79782 32531 ft 486 kts 81°
2026-04-21 16:03 40.43961 28.84183 32852 ft 487 kts 81°
2026-04-21 16:03 40.44394 28.88605 32949 ft 491 kts 81°
2026-04-21 16:03 40.45273 28.97558 32928 ft 496 kts 81°
2026-04-21 16:04 40.46143 29.06545 32911 ft 497 kts 81°
2026-04-21 16:04 40.47001 29.15552 32922 ft 497 kts 81°
2026-04-21 16:05 40.47141 29.24559 32930 ft 499 kts 96°
2026-04-21 16:05 40.46260 29.33609 32926 ft 499 kts 97°
2026-04-21 16:06 40.45367 29.42648 32928 ft 499 kts 97°
2026-04-21 16:06 40.44482 29.51682 32832 ft 500 kts 97°
2026-04-21 16:07 40.44037 29.56196 32462 ft 499 kts 97°
2026-04-21 16:07 40.43586 29.60724 32109 ft 499 kts 97°
2026-04-21 16:07 40.43135 29.65230 31742 ft 499 kts 97°
2026-04-21 16:07 40.42679 29.69748 31383 ft 499 kts 97°
2026-04-21 16:08 40.41761 29.78790 30677 ft 500 kts 97°
2026-04-21 16:08 40.41299 29.83323 30327 ft 500 kts 97°
2026-04-21 16:08 40.40838 29.87850 29981 ft 500 kts 97°
2026-04-21 16:09 40.40374 29.92374 29583 ft 501 kts 97°
2026-04-21 16:09 40.39908 29.96919 29171 ft 501 kts 97°
2026-04-21 16:09 40.39440 30.01452 28797 ft 502 kts 97°
2026-04-21 16:09 40.38968 30.05988 28409 ft 501 kts 97°
2026-04-21 16:10 40.38500 30.10441 28030 ft 498 kts 97°
2026-04-21 16:10 40.38023 30.14938 27649 ft 495 kts 97°
2026-04-21 16:10 40.37550 30.19409 27273 ft 492 kts 97°
2026-04-21 16:10 40.37077 30.23853 26914 ft 489 kts 97°
2026-04-21 16:11 40.36611 30.28252 26555 ft 486 kts 97°
2026-04-21 16:11 40.36149 30.32632 26196 ft 484 kts 97°
2026-04-21 16:11 40.35688 30.36999 25841 ft 481 kts 97°
2026-04-21 16:11 40.35226 30.41333 25512 ft 479 kts 98°
2026-04-21 16:12 40.34919 30.44208 25297 ft 478 kts 98°
2026-04-21 16:12 40.34300 30.49970 24876 ft 475 kts 98°
2026-04-21 16:12 40.33846 30.54194 24561 ft 473 kts 98°
2026-04-21 16:12 40.33389 30.58453 24255 ft 471 kts 98°
2026-04-21 16:13 40.32934 30.62696 23946 ft 469 kts 98°
2026-04-21 16:13 40.32477 30.66914 23657 ft 467 kts 98°
2026-04-21 16:13 40.32015 30.71124 23326 ft 465 kts 98°
2026-04-21 16:13 40.31550 30.75319 22962 ft 462 kts 98°
2026-04-21 16:14 40.31090 30.79472 22604 ft 459 kts 98°
2026-04-21 16:14 40.30634 30.83598 22256 ft 457 kts 98°
2026-04-21 16:14 40.30178 30.87702 21909 ft 454 kts 98°
2026-04-21 16:14 40.29725 30.91775 21569 ft 451 kts 98°
2026-04-21 16:15 40.29273 30.95840 21237 ft 449 kts 99°
2026-04-21 16:15 40.28825 30.99868 20885 ft 447 kts 99°
2026-04-21 16:15 40.28375 31.03881 20549 ft 444 kts 99°
2026-04-21 16:15 40.27922 31.07879 20225 ft 442 kts 99°
2026-04-21 16:16 40.27471 31.11843 19901 ft 439 kts 99°
2026-04-21 16:16 40.27020 31.15786 19612 ft 437 kts 99°
2026-04-21 16:16 40.26573 31.19709 19505 ft 435 kts 99°
2026-04-21 16:16 40.26126 31.23631 19413 ft 435 kts 99°
2026-04-21 16:17 40.25680 31.27541 19311 ft 434 kts 99°
2026-04-21 16:17 40.25233 31.31442 19202 ft 433 kts 99°
2026-04-21 16:17 40.24785 31.35339 19111 ft 432 kts 99°
2026-04-21 16:17 40.24335 31.39225 19016 ft 432 kts 99°
2026-04-21 16:18 40.23884 31.43109 18913 ft 431 kts 99°
2026-04-21 16:18 40.23434 31.46993 18824 ft 431 kts 99°
2026-04-21 16:18 40.22982 31.50879 18747 ft 430 kts 99°
2026-04-21 16:18 40.22536 31.54693 18673 ft 428 kts 99°
2026-04-21 16:19 40.22085 31.58545 18601 ft 428 kts 99°
2026-04-21 16:19 40.21628 31.62440 18528 ft 427 kts 99°
2026-04-21 16:19 40.21182 31.66224 18456 ft 426 kts 99°
2026-04-21 16:19 40.20728 31.70048 18387 ft 426 kts 99°
2026-04-21 16:20 40.20271 31.73872 18314 ft 425 kts 99°
2026-04-21 16:20 40.19814 31.77699 18237 ft 425 kts 99°
2026-04-21 16:20 40.19451 31.81525 18160 ft 424 kts 94°
2026-04-21 16:20 40.19441 31.85384 18084 ft 423 kts 86°
2026-04-21 16:21 40.19802 31.89196 18002 ft 422 kts 78°
2026-04-21 16:21 40.20512 31.92907 17919 ft 420 kts 71°
2026-04-21 16:21 40.21556 31.96468 17840 ft 418 kts 64°
2026-04-21 16:21 40.22744 31.99944 17756 ft 418 kts 64°
2026-04-21 16:22 40.23524 32.02239 17709 ft 418 kts 64°
2026-04-21 16:22 40.25089 32.06879 17599 ft 417 kts 64°
2026-04-21 16:22 40.26256 32.10352 17522 ft 415 kts 64°
2026-04-21 16:22 40.27417 32.13804 17448 ft 414 kts 64°
2026-04-21 16:23 40.28577 32.17247 17367 ft 414 kts 64°
2026-04-21 16:23 40.29740 32.20701 17290 ft 413 kts 64°
2026-04-21 16:23 40.30898 32.24142 17088 ft 413 kts 65°
2026-04-21 16:23 40.32049 32.27577 16782 ft 410 kts 65°
2026-04-21 16:24 40.33190 32.30990 16476 ft 408 kts 65°
2026-04-21 16:24 40.34325 32.34391 16157 ft 406 kts 65°
2026-04-21 16:24 40.35242 32.37884 15858 ft 405 kts 76°
2026-04-21 16:24 40.35675 32.41519 15556 ft 403 kts 86°
2026-04-21 16:25 40.35628 32.45178 15257 ft 401 kts 97°
2026-04-21 16:25 40.35119 32.48754 14960 ft 397 kts 107°
2026-04-21 16:25 40.34542 32.51024 14767 ft 395 kts 113°
2026-04-21 16:25 40.33324 32.54233 14476 ft 391 kts 123°